Location: Sangrey
(48.2845°N, 109.8206°W)
Time: 17:15:37
(UTC+00:00)

Envisat - Visible Passes

Search period start: 21 January 2022 00:00
Search period end: 31 January 2022 00:00
Orbit: 764 x 766 km, 98.2° (Epoch: 20 January)

Date Brightness Start Highest point End Pass type
(mag) Time Alt. Az. Time Alt. Az. Time Alt. Az.
21 Jan 5.8 10:49:45 10° ENE 10:52:11 13° E 10:54:37 10° ESE visible
21 Jan 2.9 12:26:48 10° NNE 12:31:55 89° WNW 12:37:00 10° SSW visible
21 Jan 4.5 14:07:19 10° NNW 14:10:14 16° NW 14:13:08 10° W visible
22 Jan 4.0 11:50:05 10° NNE 11:54:58 45° E 11:59:48 10° S visible
22 Jan 3.8 13:29:28 10° N 13:33:47 28° WNW 13:38:04 10° WSW visible
23 Jan 6.0 00:50:05 10° WSW 00:52:48 14° W 00:55:32 10° NW visible
23 Jan 5.2 11:13:51 10° NE 11:17:48 22° E 11:21:42 10° SE visible
23 Jan 3.0 12:52:11 10° N 12:57:10 55° WNW 13:02:05 10° SSW visible
24 Jan 6.0 10:39:36 10° ENE 10:40:25 10° E 10:41:14 10° E visible
24 Jan 3.1 12:15:13 10° NNE 12:20:20 74° ESE 12:25:24 10° S visible
24 Jan 4.3 13:55:20 10° NNW 13:58:47 19° WNW 14:02:14 10° W visible
25 Jan 4.4 11:38:37 10° NNE 11:43:18 36° E 11:47:57 10° SSE visible
25 Jan 3.6 13:17:42 10° N 13:22:17 34° WNW 13:26:50 10° SW visible
26 Jan 5.8 00:37:38 10° SW 00:41:04 18° W 00:44:31 10° NW visible
26 Jan 5.5 11:02:39 10° NE 11:06:04 18° E 11:09:29 10° SE visible
26 Jan 2.9 12:40:31 10° N 12:45:36 68° WNW 12:50:38 10° SSW visible
26 Jan 4.7 14:21:47 10° NNW 14:23:41 12° NW 14:25:36 10° WNW visible
27 Jan 3.4 12:03:40 10° NNE 12:08:42 60° E 12:13:43 10° S visible
27 Jan 4.1 13:43:27 10° N 13:47:19 22° WNW 13:51:12 10° WSW visible
28 Jan 6.4 01:05:47 10° W 01:06:43 10° W 01:07:39 10° WNW visible
28 Jan 4.8 11:27:12 10° NE 11:31:37 29° E 11:36:00 10° SSE visible
28 Jan 3.3 13:05:59 10° N 13:10:46 42° WNW 13:15:31 10° SW visible
29 Jan 5.8 10:51:37 10° NE 10:54:19 14° E 10:57:01 10° ESE visible
29 Jan 2.9 12:28:54 10° NNE 12:34:01 84° WNW 12:39:06 10° SSW visible
29 Jan 4.6 14:09:32 10° NNW 14:12:16 15° NW 14:15:00 10° W visible
30 Jan 3.9 11:52:08 10° NNE 11:57:04 48° E 12:01:57 10° S visible
30 Jan 3.9 13:31:37 10° N 13:35:51 27° WNW 13:40:03 10° WSW visible
